Regional Weather Roundup
Issued by NWS Memphis, TN

Home | Current Version | Previous Version | Text Only | Print | Product List | Glossary On
Versions: 1 2 3 4 5 6 7 8 9 10 11 12 13 14 15 16 17 18 19 20 21 22 23 24 25 26 27 28 29 30 31 32 33 34 35 36 37 38 39 40 41 42 43 44 45 46 47 48 49 50
520
ASUS44 KMEG 211210
RWRMEG
MEMPHIS CWA HOURLY WEATHER ROUNDUP
NATIONAL WEATHER SERVICE MEMPHIS TN
600 AM CST SUN JAN 21 2018

...WEST TENNESSEE...

CITY           SKY/WX    TMP DP  RH WIND       PRES   REMARKS
MEMPHIS INTL   CLOUDY    57  51  80 S10       30.11R
6HR MIN TEMP:  53; 6HR MAX TEMP:  57;

NWS MEMPHIS      N/A    N/A N/A N/A MISG        N/A
JACKSON        CLOUDY    53  47  79 S9        30.12S
6HR MIN TEMP:  53; 6HR MAX TEMP:  55;

COVINGTON      CLOUDY    55  50  82 S10       30.11R
SOMERVILLE     CLOUDY    54  48  82 S9        30.11R
BOLIVAR        CLOUDY    54  48  82 S8        30.13R
LEXINGTON      CLOUDY    54  43  66 S8        30.14S
SELMER         CLOUDY    54  45  71 S8G14     30.14S
SAVANNAH       CLOUDY    54  43  66 S8        30.16R
DYERSBURG      CLOUDY    52  49  89 S6        30.11R
6HR MIN TEMP:  51; 6HR MAX TEMP:  53;

UNION CITY     CLOUDY    50  45  81 S7        30.09S
PARIS          CLOUDY    48  45  87 S9        30.10R
HUNTINGDON     CLOUDY    52  46  82 S9        30.11S


...EASTERN ARKANSAS...

CITY           SKY/WX    TMP DP  RH WIND       PRES   REMARKS
JONESBORO      CLOUDY    53  52  96 S10       30.05R
6HR MIN TEMP:  51; 6HR MAX TEMP:  57;

WEST MEMPHIS   CLOUDY    54  50  86 S9        30.10R
6HR MIN TEMP:  53; 6HR MAX TEMP:  56;

BATESVILLE     CLOUDY    58  56  93 S9        30.01R
6HR MIN TEMP:  58; 6HR MAX TEMP:  59; 6HR PCP: TRACE;

NEWPORT        LGT RAIN  52  51  97 S18       30.03S
6HR MIN TEMP:  49; 6HR MAX TEMP:  55; 6HR PCP: TRACE;

WALNUT RIDGE   CLOUDY    50  49  96 S13       30.03R
6HR MIN TEMP:  48; 6HR MAX TEMP:  51;

BLYTHEVILLE    CLOUDY    55  55 100 S16       30.09R
6HR MIN TEMP:  50; 6HR MAX TEMP:  55;

SEARCY         CLOUDY    57  50  78 S9        30.04R
6HR MIN TEMP:  57; 6HR MAX TEMP:  58;

STUTTGART      CLOUDY    55  53  93 S10       30.07R
6HR MIN TEMP:  54; 6HR MAX TEMP:  57;

PINE BLUFF     CLOUDY    58  55  90 S10       30.06R
6HR MIN TEMP:  58; 6HR MAX TEMP:  60;

MONTICELLO     CLOUDY    58  54  86 S9        30.08R
6HR MIN TEMP:  58; 6HR MAX TEMP:  59;



...NORTH MISSISSIPPI...

CITY           SKY/WX    TMP DP  RH WIND       PRES   REMARKS
TUPELO         MOCLDY    50  42  74 SE7       30.17R
6HR MIN TEMP:  48; 6HR MAX TEMP:  52;

BATESVILLE     MOCLDY    54  46  73 S3        30.14R
6HR MIN TEMP:  54; 6HR MAX TEMP:  56;

TUNICA           N/A     50  46  87 S8        30.11S
CLARKSDALE     CLOUDY    50  50 100 S10       30.11S
CORINTH        CLOUDY    52  43  71 S7        30.16R
GREENWOOD      CLOUDY    55  49  80 S14       30.13R
6HR MIN TEMP:  54; 6HR MAX TEMP:  56;

COLUMBUS       MOCLDY    44  42  94 CALM      30.19R
6HR MIN TEMP:  43; 6HR MAX TEMP:  52;

STARKVILLE     CLOUDY    46  43  87 SE3       30.19R
GOLDEN TRIANGL MOCLDY    45  42  89 SE6       30.19R
6HR MIN TEMP:  45; 6HR MAX TEMP:  50;



...SOUTHEAST MISSOURI...

CITY           SKY/WX    TMP DP  RH WIND       PRES   REMARKS
KENNETT        CLOUDY    52  50  93 S9        30.05S
MALDEN         CLOUDY    50  46  87 S9        30.06S
WEST PLAINS    FOG       53  52  96 S7        29.97S VSB 1/4
6HR MIN TEMP:  50; 6HR MAX TEMP:  53;

POPLAR BLUFF   CLOUDY    51  50  96 S10       30.03S
6HR MIN TEMP:  49; 6HR MAX TEMP:  51;

CAPE GIRARDEAU CLOUDY    50  47  89 S14       30.05R
6HR MIN TEMP:  47; 6HR MAX TEMP:  51;



...NORTHWEST ALABAMA...

CITY           SKY/WX    TMP DP  RH WIND       PRES   REMARKS
MUSCLE SHOALS  CLOUDY    44  38  79 SE3       30.21R
6HR MIN TEMP:  39; 6HR MAX TEMP:  52;



...MIDDLE TENNESSEE...

CITY           SKY/WX    TMP DP  RH WIND       PRES   REMARKS
NASHVILLE      MOCLDY    52  39  61 S6        30.17S
6HR MIN TEMP:  49; 6HR MAX TEMP:  54;

CLARKSVILLE    MOCLDY    51  40  65 S8        30.12R
6HR MIN TEMP:  49; 6HR MAX TEMP:  54;

COLUMBIA       CLOUDY    52  39  62 S10       30.16S


...WESTERN KENTUCKY...

CITY           SKY/WX    TMP DP  RH WIND       PRES   REMARKS
PADUCAH        CLOUDY    52  44  74 S8        30.07R
6HR MIN TEMP:  50; 6HR MAX TEMP:  52;

FORT CAMPBELL  MOCLDY    52  40  65 S7        30.11R
6HR MIN TEMP:  51; 6HR MAX TEMP:  54;



...CENTRAL ARKANSAS...

CITY           SKY/WX    TMP DP  RH WIND       PRES   REMARKS
LITTLE ROCK    CLOUDY    60  59  96 S9        30.03R
6HR MIN TEMP:  60; 6HR MAX TEMP:  61;



SKY/WX REPORTED AS FAIR MEANS FEW OR NO CLOUDS BELOW
12 THOUSAND FEET.





USA.gov is the U.S. government's official web portal to all federal, state and local government web resources and services.